This demonstration page uses our WeatherBlox Daily Observations layout. Learn more.

Left ArrowRight Arrow

41.12389, -100.76542

Hourly Observations for September 3, 2016

Temp ( °F °C ) Dew Point ( °F °C ) Humidity (%) Winds ( mph kmh ) Pressure ( in mb ) Visibility ( mi km ) Precip ( " mm )
12:53 am 00:53 Clear 65 18.3 57 13.9 76 76 SE 13 20 29.93 1013 10 16 0.00 0.00
1:53 am 01:53 Clear 64 17.8 57 13.9 78 78 SE 12 19 29.92 1013 10 16 0.00 0.00
2:53 am 02:53 Cloudy 65 18.3 59 15 81 81 SE 10 17 29.90 1012 10 16 0.00 0.00
3:53 am 03:53 Cloudy 67 19.4 59 15 76 76 SE 12 19 29.88 1012 10 16 0.00 0.00
4:53 am 04:53 Cloudy 66 18.9 59 15 78 78 SE 12 19 29.88 1012 10 16 0.00 0.00
5:53 am 05:53 Cloudy 65 18.3 58 14.4 78 78 SE 9 15 29.88 1012 10 16 0.00 0.00
6:53 am 06:53 Cloudy 65 18.3 58 14.4 78 78 SE 10 17 29.88 1012 10 16 0.00 0.00
7:53 am 07:53 Cloudy 65 18.3 58 14.4 78 78 SSE 10 17 29.90 1012 10 16 0.00 0.00
8:53 am 08:53 Cloudy 63 17.2 59 15 87 87 SE 9 15 29.91 1013 10 16 0.00 0.00
9:53 am 09:53 Cloudy 65 18.3 59 15 81 81 SE 8 13 29.91 1013 10 16 0.00 0.00
10:53 am 10:53 Cloudy 69 20.6 60 15.6 73 73 SE 9 15 29.89 1012 10 16 0.00 0.00
11:05 am 11:05 Cloudy 70 21.1 60 15.6 71 71 SE 9 15 29.83 1010 10 16 0.00 0.00
11:53 am 11:53 Cloudy 74 23.3 62 16.7 67 67 SSE 12 19 29.88 1012 10 16 0.00 0.00
12:53 pm 12:53 Cloudy 78 25.6 63 17.2 60 60 SSE 8 13 29.85 1011 10 16 0.00 0.00
1:53 pm 13:53 Mostly Cloudy 81 27.2 64 17.8 57 57 SSE 12 19 29.83 1010 10 16 0.00 0.00
2:53 pm 14:53 Mostly Cloudy 81 27.2 64 17.8 57 57 SSE 12 19 29.81 1010 10 16 0.00 0.00
3:53 pm 15:53 Cloudy 77 25 64 17.8 64 64 SSE 10 17 29.83 1010 10 16 0.00 0.00
4:53 pm 16:53 Mostly Cloudy 80 26.7 65 18.3 60 60 SE 13 20 29.80 1009 10 16 0.00 0.00
5:13 pm 17:13 Partly Cloudy 82 27.8 66 18.9 58 58 SE 10 17 29.68 1005 10 16 0.00 0.00
5:53 pm 17:53 Mostly Sunny 78 25.6 66 18.9 67 67 SE 10 17 29.79 1009 10 16 0.00 0.00
6:53 pm 18:53 Sunny 76 24.4 67 19.4 74 74 E 10 17 29.78 1009 10 16 0.00 0.00
7:53 pm 19:53 Sunny 73 22.8 67 19.4 81 81 E 8 13 29.78 1009 10 16 0.00 0.00
8:53 pm 20:53 Clear 71 21.7 67 19.4 87 87 ESE 8 13 29.79 1009 10 16 0.00 0.00
9:53 pm 21:53 Partly Cloudy 70 21.1 67 19.4 90 90 ESE 5 7 29.80 1009 10 16 0.00 0.00
10:07 pm 22:07 Mostly Cloudy 71 21.7 66 18.9 84 84 SSE 8 13 29.71 1006 10 16 0.00 0.00
10:18 pm 22:18 Partly Cloudy 72 22 66 19 83 83 SE 12 19 29.71 1006 10 16 0.00 0.00
10:53 pm 22:53 Mostly Clear 71 21.7 59 15 66 66 S 10 17 29.78 1009 10 16 0.00 0.00
11:53 pm 23:53 Mostly Clear 66 18.9 60 15.6 81 81 S 10 17 29.80 1009 10 16 0.00 0.00

Powered by AerisWeather